Location: Bright Sky Observatory
(40.7821°N, 74.2425°W)
Time: 08:20:47
(UTC-05:00)

Daily predictions for brighter satellites

Satellite Brightness Start Highest point End
(mag) Time Altitude Azimuth Time Altitude Azimuth Time Altitude Azimuth
Abrixas 3.6 17:28:59 10° W 17:31:41 32° NNW 17:34:22 10° NE
CZ-2C R/B 2.7 17:26:53 10° S 17:31:49 76° WSW 17:36:37 10° NNW
Cosmos 1340 Rocket 3.0 17:29:53 10° S 17:33:41 49° E 17:37:29 10° NNE
Cosmos 1707 Rocket 4.4 17:29:55 10° NNE 17:33:41 28° ENE 17:37:27 10° SE
YAOGAN 1 2.6 17:30:44 10° SSE 17:35:04 88° ENE 17:39:25 10° NNW
COSMO-SKYMED 1 3.1 17:33:25 10° NNE 17:37:30 38° E 17:41:33 10° SSE
COSMOS 2441 4.3 17:34:10 10° SSE 17:38:59 71° ENE 17:43:49 10° N
CORIOLIS 4.2 17:33:48 10° SSE 17:39:09 87° WSW 17:44:34 10° NNW
SMAP 3.4 17:34:41 10° S 17:39:19 73° WSW 17:44:00 10° NNW
Cosmos 1666 Rocket 4.3 17:40:19 10° SSE 17:44:10 32° E 17:48:03 10° NNE
CENTAUR R/B 4.3 17:39:35 10° W 17:44:46 26° NW 17:50:29 10° NNE
ATLAS 5 CENTAUR R/B 4.2 17:44:09 10° NNE 17:45:06 10° NNE 17:46:03 10° NNE
Lacrosse 4 Rocket 2.3 17:47:43 10° N 17:51:11 26° NE 17:54:37 10° ESE
Cosmos 1626 2.5 17:50:35 10° SSE 17:54:08 44° E 17:57:43 10° NNE
USA 229 DEB 4.0 17:51:13 10° S 17:57:41 47° ESE 18:04:15 10° NE
USA 229 4.0 17:51:19 10° S 17:57:47 47° ESE 18:04:20 10° NE
Cosmos 1151 Rocket 4.4 17:55:32 10° NNW 17:59:35 42° W 18:03:38 10° SSW
Resurs 01 Rocket 3.1 17:58:14 10° ESE 18:01:01 17° ENE 18:03:48 10° NNE
Cosmos 2219 Rocket 4.2 17:58:49 10° WSW 18:03:26 25° NW 18:08:03 10° N
Cosmos 2058 3.7 18:00:51 10° SSW 18:04:51 55° W 18:08:54 10° N
Cosmos 1184 Rocket 3.1 18:02:50 10° SSE 18:06:02 43° E 18:09:13 10° NNE
Cosmos 1726 4.4 18:04:39 10° NNW 18:07:57 29° W 18:11:15 10° SSW
Cosmos 2279 Rocket 4.2 18:02:06 10° N 18:08:20 77° W 18:14:32 10° S
CZ-4C R/B 4.5 18:05:20 10° N 18:08:29 13° NNE 18:11:11 11° NE
Iridium 4 Rocket 3.8 18:06:28 10° SE 18:10:15 29° E 18:13:55 10° NNE
Spot 2 Rocket 4.5 18:08:43 10° ESE 18:12:41 24° ENE 18:16:40 10° NNE
Cosmos 1603 4.2 18:07:55 10° S 18:13:04 39° ESE 18:17:32 13° NE
Cosmos 2333 Rocket 4.1 18:09:35 10° WSW 18:14:18 27° NW 18:19:02 10° N
Cosmos 1461 3.9 18:11:12 10° SW 18:15:12 44° NW 18:19:06 10° NNE
FREGAT/IRIS 3.3 18:13:07 10° SE 18:15:52 31° ENE 18:18:37 10° N
Aureole 1 Rocket 4.0 18:10:31 10° S 18:15:54 61° ESE 18:22:58 10° NNE
Lacrosse 5 rocket 4.0 18:13:46 10° WNW 18:16:41 21° SW 18:19:43 10° S
Cosmos 1470 Rocket 4.3 18:13:34 10° SSE 18:17:19 29° E 18:19:51 17° NE
DMSP B5D1-3 4.4 18:13:11 10° NNE 18:18:19 76° ESE 18:23:24 10° S
Cosmos 2278 Rocket 4.4 18:14:43 10° NW 18:19:33 29° WSW 18:24:22 10° SSW
Cosmos 1242 Rocket 3.2 18:16:43 10° NNE 18:19:49 29° ENE 18:22:54 10° SE
Cosmos 1455 2.0 18:17:32 10° N 18:21:22 74° E 18:25:11 10° SSE
Tiangong 1 2.2 18:19:26 10° SSW 18:22:02 27° SSE 18:22:42 25° SE
Cosmos 1805 Rocket 4.0 18:17:41 10° SSW 18:22:06 64° W 18:26:33 10° N
Cosmos 1356 Rocket 3.4 18:20:06 10° SSW 18:24:04 77° W 18:28:05 10° N
SKYMED 2 4.1 18:21:19 10° N 18:25:37 60° WNW 18:29:52 10° SSW
Nadezhda 4 Rocket 3.9 18:20:51 10° S 18:27:06 81° E 18:33:27 10° N
Cosmos 2242 Rocket 3.5 18:25:49 10° N 18:30:13 61° E 18:34:36 10° SSE
Cosmos 2026 Rocket 4.5 18:25:23 10° SSE 18:30:52 34° E 18:36:17 10° NNE
Cosmos 1538 Rocket 4.5 18:25:52 10° SSW 18:31:07 64° WNW 18:36:28 10° NNE
Sich 1 3.2 18:28:27 10° SSW 18:32:53 76° W 18:37:20 10° N
Coronas F rocket 1.4 18:35:21 10° SSW 18:37:41 61° W 18:37:55 56° NW
Cosmos 923 Rocket 3.9 18:33:44 10° S 18:38:53 68° ESE 18:42:58 16° NNE
Cosmos 2237 Rocket 4.4 18:39:12 10° W 18:43:22 21° NW 18:47:33 10° N
SJ-6B 2.8 18:39:39 10° SSE 18:43:44 86° E 18:47:55 10° NNW
Cosmos 1633 Rocket 3.5 18:40:22 10° SSW 18:44:43 64° W 18:49:06 10° N
Cosmos 1680 Rocket 3.5 18:39:48 10° S 18:44:54 58° ESE 18:47:47 26° NE
Cosmos 2369 Rocket 2.8 18:41:39 10° N 18:46:47 34° ENE 18:47:04 34° ENE
NOSS 3-1 (C) 3.8 18:43:32 10° S 18:48:48 39° ESE 18:50:00 35° E
Cosmos 1092 Rocket 4.0 18:44:10 10° S 18:50:30 88° E 18:56:54 10° N
SL-16 R/B 3.5 18:46:57 10° SW 18:52:10 37° WNW 18:57:25 10° N
Lacrosse 5 3.7 18:53:21 10° NNW 18:56:21 16° NNE 18:56:21 16° NNE
ATLAS 3B R/B 4.4 18:56:25 10° N 18:59:56 14° NNE 19:00:18 14° NNE
USA 215 3.2 18:56:43 32° ESE 18:59:57 67° NE 19:06:28 10° NW
ALOS 2.1 18:56:51 10° SSE 19:01:31 75° ENE 19:06:11 10° N
Cosmos 1862 Rocket 3.4 19:04:46 10° N 19:09:10 89° W 19:13:30 10° S
FENGYUN 3A 3.5 19:05:52 10° SSE 19:11:13 88° ENE 19:16:38 10° NNW
BREEZE-M DEB (TANK) 4.4 19:07:19 10° SSW 19:11:53 48° ESE 19:15:10 37° E
Cosmos 292 Rocket 4.1 19:07:28 10° SSW 19:12:10 64° WNW 19:14:24 30° N
Cosmos 2195 Rocket 4.3 19:06:37 10° S 19:12:43 86° E 19:18:54 10° N
Genesis I 4.4 19:10:25 10° SSW 19:12:42 33° S 19:12:42 33° S
Cosmos 2112 Rocket 4.0 19:16:33 10° SSW 19:21:45 76° WNW 19:23:17 46° N
Meteor 2-20 Rocket 4.3 19:15:54 10° S 19:21:55 64° E 19:22:00 64° E
Cosmos 1943 3.1 19:23:15 10° SSW 19:28:35 75° SSE 19:28:35 75° SSE
Lacrosse 4 Rocket 3.4 19:26:25 10° NW 19:29:48 26° WSW 19:33:02 11° SSW
ATLAS 5 CENTAUR R/B 3.5 19:26:07 10° NNW 19:29:30 28° N 19:29:30 28° N
Resurs 01 Rocket 2.5 19:32:48 10° S 19:37:05 48° W 19:41:25 10° NNW
Cosmos 1417 Rocket 4.3 19:33:17 10° N 19:39:29 86° W 19:45:37 10° S
H-2A ROCKET BODY 3.8 19:29:42 10° W 19:43:43 32° SSW 19:45:24 28° S
Cosmos 1943 Rocket 4.0 19:42:49 10° NNW 19:44:32 20° N 19:44:32 20° N
Cosmos 1655 Rocket 4.3 19:45:20 10° SSW 19:51:40 65° W 19:57:59 10° N
CZ-4C R/B 3.9 19:52:32 10° NNW 19:56:23 30° N 19:56:23 30° N
NOSS 3-1 (A) 4.1 19:56:13 10° SW 20:00:05 46° SW 20:00:05 46° SW
Cosmos 2369 Rocket 4.0 20:25:43 10° NW 20:28:57 28° WNW 20:28:57 28° WNW
